Wind_Speed
10 8 9 10 13 17 19 21 26 25 25 27 30 37 34 33 34 35 37 35 36 38 39 36 40 44 45 47 50 47 44 41 42 43 45 43 42 40 40 40 39 36 35 34
9 13 9 14 13 16 19 22 24 25 22 34 38 39 40 30 24 26 26 27 31 34 36 39 40 41 45 47 47 45 44 40 41 41 42 40 40 41 40 40 39 37 36 35
12 10 16 12 12 16 15 19 21 29 35 33 30 27 12 21 19 14 15 20 22 27 31 37 41 40 43 47 45 41 40 41 38 40 41 41 43 42 42 41 40 38 37 34
5 11 13 11 12 12 20 15 25 32 29 23 20 12 24 16 16 14 16 18 21 23 27 37 43 41 45 46 43 38 38 38 37 37 45 44 43 44 40 41 41 39 36 36
8 12 10 8 10 13 18 23 29 32 26 21 17 13 19 24 13 17 24 27 28 25 28 34 39 46 41 48 44 38 37 40 39 39 43 43 42 40 40 41 44 38 38 37
16 9 6 8 13 16 16 26 24 10 9 6 8 12 19 19 24 28 32 34 29 29 33 33 37 42 41 45 48 39 39 42 42 43 43 39 39 40 40 43 40 40 39 37
12 4 5 11 17 8 18 21 7 4 7 13 16 19 17 23 23 31 38 38 32 32 31 29 35 33 38 36 44 44 37 39 44 43 37 36 37 36 36 40 37 36 36 33
11 2 4 10 14 12 14 11 3 6 10 17 22 6 16 21 30 30 31 28 25 26 18 18 28 32 35 35 36 44 37 37 45 39 33 33 34 31 34 34 34 34 32 29
10 4 12 9 15 4 12 10 13 9 16 11 4 10 21 29 33 27 28 24 20 16 15 14 20 28 30 32 36 41 35 35 46 39 37 33 30 30 36 33 33 31 30 26
7 13 7 16 7 3 7 11 9 9 6 7 18 12 19 43 47 34 25 21 16 8 14 15 21 25 30 30 41 35 32 32 46 45 37 32 24 27 28 27 31 30 31 27
13 8 16 14 8 6 10 14 10 12 11 4 8 16 27 41 45 38 25 25 19 14 9 14 17 22 28 28 38 33 34 32 46 48 38 32 28 27 27 24 25 26 28 27
9 9 14 19 10 6 15 18 13 7 6 18 9 8 33 44 35 29 24 22 16 14 6 10 17 22 25 33 37 33 33 30 41 48 43 41 30 29 30 27 31 29 33 31
9 6 14 13 4 3 22 17 21 17 17 14 11 16 40 44 44 23 22 18 8 5 6 11 16 17 22 33 32 32 33 36 44 44 44 52 35 34 33 31 32 33 40 36
7 9 10 15 22 25 22 20 14 19 13 16 12 38 40 44 35 30 22 10 10 7 6 10 13 18 26 30 29 30 36 38 48 45 36 38 34 32 30 27 29 32 33 30
5 13 15 19 21 18 14 11 17 18 13 9 24 32 38 39 33 34 22 9 3 4 5 13 15 15 14 18 23 28 39 40 41 47 39 41 31 29 26 21 23 25 23 30
11 12 17 20 9 13 18 15 18 20 16 12 22 28 35 32 33 34 21 8 3 3 8 9 9 10 9 11 20 29 33 40 29 28 33 34 33 22 18 16 16 20 13 23
11 12 15 14 17 16 5 7 17 18 15 15 24 28 32 31 31 32 22 11 6 9 5 9 7 15 12 9 31 26 32 30 30 31 30 26 20 20 20 19 18 30 17 25
10 12 11 19 15 3 4 9 14 18 13 14 23 26 27 31 25 23 24 10 4 8 6 5 7 5 25 15 20 14 20 28 27 27 25 23 21 18 18 19 22 23 22 26
8 8 11 7 17 17 6 7 17 21 15 14 26 25 26 26 24 20 18 14 6 5 2 3 10 16 14 10 11 12 15 16 17 19 23 21 19 16 21 19 30 32 35 28
5 8 9 14 6 4 5 13 17 15 6 21 25 25 27 27 26 23 23 11 6 3 2 2 8 14 17 19 16 15 8 13 5 13 15 16 16 15 20 29 43 39 30 26
13 11 13 13 12 12 11 14 20 8 14 24 24 23 24 23 23 20 20 8 6 3 6 6 9 12 13 14 16 15 15 17 20 18 16 13 14 14 33 44 39 30 30 28
8 9 9 9 12 8 10 19 16 17 21 20 20 21 22 20 20 17 18 15 13 8 10 9 9 14 16 20 20 18 17 19 21 19 17 15 31 42 31 24 27 25 25 22
5 6 15 11 13 19 25 22 19 19 22 18 18 18 20 19 19 14 13 13 15 4 5 13 17 14 15 15 16 15 16 17 20 22 19 36 35 31 38 32 31 27 21 20
18 14 17 20 10 17 23 23 22 18 14 15 16 18 20 19 18 15 10 13 15 9 1 7 14 22 23 18 16 16 12 14 19 23 43 45 34 36 35 30 28 26 23 20
24 23 23 24 24 18 10 13 11 9 10 13 14 18 19 17 17 13 10 11 13 15 8 15 14 18 27 29 24 17 15 27 40 49 51 43 41 35 35 33 29 24 23 20
20 19 22 18 12 17 18 17 15 12 11 11 14 16 17 15 15 11 9 11 11 11 12 11 8 4 16 25 30 30 35 37 38 40 37 35 38 34 28 23 23 24 22 22
Wind_Direction
289 309 296 296 303 297 299 302 301 302 304 295 291 293 291 284 277 276 272 268 264 259 253 237 242 238 229 225 228 231 230 230 225 220 219 216 216 216 216 214 215 217 220 226
320 291 305 308 311 308 306 304 302 306 308 305 300 298 297 290 278 276 275 275 268 260 247 233 235 234 231 223 225 229 230 228 226 222 219 214 216 217 217 216 214 217 221 227
298 282 305 321 318 313 312 307 306 307 317 308 305 308 295 304 286 281 288 284 279 263 248 238 232 227 229 225 219 222 225 225 228 218 216 210 211 215 218 217 215 216 220 225
313 303 318 313 321 318 314 311 310 312 318 307 313 293 314 324 302 291 301 307 296 275 259 247 236 228 222 221 217 215 216 218 222 209 215 211 210 215 215 218 217 217 221 226
302 311 306 313 308 309 299 314 313 311 300 293 299 269 292 321 301 299 302 302 299 280 269 254 239 231 220 219 212 209 207 212 215 208 208 207 208 211 217 215 216 216 220 226
308 309 333 313 321 314 300 329 330 316 304 271 337 312 305 332 310 311 307 311 305 292 276 252 238 226 217 217 213 208 203 204 208 206 202 204 203 208 213 216 215 218 221 224
338 279 313 351 340 332 340 344 325 325 305 309 339 314 290 321 314 313 320 313 310 300 282 248 231 216 210 211 212 207 206 202 200 200 197 205 201 206 218 220 214 218 224 227
341 155 334 320 338 314 333 357 358 305 329 308 317 303 319 327 336 320 312 308 307 305 284 237 212 209 209 204 208 203 206 205 195 189 191 195 196 202 211 215 218 222 223 225
331 307 312 328 327 331 323 328 313 276 292 273 287 302 340 341 339 324 329 314 311 316 284 228 205 206 202 203 205 204 206 206 191 185 189 188 191 201 212 211 220 218 219 219
314 304 323 328 324 303 334 325 328 318 305 299 331 328 322 348 345 338 336 317 293 323 304 237 206 206 194 201 204 204 205 203 191 186 179 184 198 200 207 210 215 215 222 216
310 282 305 333 312 312 353 334 323 297 273 292 318 331 341 342 336 338 331 322 300 331 298 249 218 197 190 200 200 205 204 204 198 188 190 198 204 198 210 212 206 217 224 214
303 295 302 312 285 231 337 333 327 309 310 298 260 294 339 330 340 336 317 320 304 335 296 231 189 185 191 198 197 206 205 203 199 198 194 196 210 208 209 210 222 228 218 215
305 291 315 334 242 295 322 319 319 310 302 290 311 302 333 333 341 340 305 315 300 320 302 176 195 199 194 193 198 209 207 204 193 198 201 209 217 215 220 227 226 226 219 215
290 285 296 290 298 304 307 318 326 320 310 309 300 323 332 350 344 5 341 333 309 273 213 195 195 197 190 192 197 193 202 198 195 196 205 202 202 213 229 232 227 236 241 248
279 294 302 299 296 296 294 301 336 334 320 313 328 333 336 350 1 357 347 334 312 282 243 196 192 198 193 212 205 194 190 186 187 194 192 199 203 213 221 215 229 227 249 251
293 292 309 312 306 301 294 280 330 337 327 338 339 338 343 354 5 7 1 344 273 158 207 212 186 201 205 179 198 197 190 190 183 197 204 204 207 208 202 225 213 216 228 246
293 308 313 306 321 313 288 309 333 334 329 348 351 340 341 359 0 4 5 357 26 103 152 180 199 159 156 213 198 205 167 169 189 204 200 204 197 205 215 231 242 234 217 200
306 309 304 304 322 281 320 315 336 330 320 340 347 347 349 358 347 7 18 3 45 61 107 164 239 242 187 207 220 197 173 186 192 197 192 192 199 197 196 214 222 191 203 182
314 301 314 305 314 292 295 321 339 337 323 346 343 346 348 358 4 17 25 25 47 84 62 124 169 190 210 212 164 170 181 176 166 175 185 194 200 207 216 198 199 189 180 211
291 279 291 309 296 285 295 317 324 325 260 347 343 345 345 356 13 5 357 37 57 55 152 168 139 175 201 208 198 197 206 184 176 187 195 198 208 220 204 178 180 187 191 191
307 290 271 284 286 285 283 320 336 292 323 336 337 340 345 350 355 358 357 0 341 284 227 185 192 173 185 188 201 201 200 201 206 208 213 211 223 218 177 178 185 197 183 187
290 304 292 291 281 284 276 319 324 301 315 324 330 333 343 342 351 356 5 24 19 294 266 253 202 186 187 186 193 197 205 207 209 207 210 198 170 163 173 185 190 181 147 159
293 250 289 276 270 271 290 299 302 295 311 318 323 330 338 345 344 353 354 2 349 4 337 222 238 217 196 192 189 180 195 206 211 202 180 168 170 163 152 154 153 153 164 164
286 282 272 295 295 299 296 300 295 295 298 306 319 331 339 342 340 350 348 344 346 345 256 348 240 236 225 207 203 191 203 207 198 195 169 166 157 153 149 160 154 156 162 169
275 272 275 280 296 299 300 315 307 301 299 310 318 326 338 342 335 343 347 345 350 344 318 299 277 264 224 222 206 185 197 189 180 172 162 160 148 160 162 154 155 162 167 167
276 287 258 269 283 294 291 294 289 290 297 306 317 334 340 341 336 333 330 339 359 2 350 2 17 250 198 196 194 192 168 155 152 148 156 159 155 155 154 157 161 161 165 157
Height
3099 3096 3096 3092 3090 3087 3083 3080 3075 3072 3069 3062 3057 3050 3052 3048 3042 3038 3034 3033 3031 3029 3030 3034 3036 3041 3044 3048 3053 3059 3066 3073 3079 3085 3090 3097 3103 3111 3115 3119 3124 3130 3134 3138
3098 3095 3092 3088 3085 3083 3081 3077 3071 3067 3063 3056 3045 3043 3038 3034 3030 3027 3025 3023 3020 3018 3018 3022 3024 3030 3036 3039 3045 3052 3058 3065 3072 3079 3087 3093 3100 3105 3110 3114 3119 3125 3129 3133
3094 3093 3087 3084 3083 3081 3078 3074 3069 3063 3055 3049 3040 3035 3031 3028 3024 3021 3018 3016 3012 3009 3009 3012 3014 3019 3026 3032 3036 3043 3051 3059 3065 3072 3080 3086 3092 3098 3103 3109 3114 3118 3123 3128
3091 3088 3084 3084 3082 3080 3074 3072 3065 3059 3055 3048 3045 3029 3029 3022 3019 3017 3015 3012 3009 3005 3003 3003 3007 3008 3014 3022 3030 3036 3044 3052 3059 3065 3071 3078 3084 3091 3099 3104 3109 3113 3119 3123
3091 3085 3083 3081 3081 3078 3073 3067 3060 3055 3051 3045 3039 3033 3020 3016 3013 3012 3009 3005 3001 2999 2996 2995 2997 3001 3005 3014 3021 3028 3035 3044 3052 3058 3064 3072 3079 3087 3094 3100 3103 3109 3114 3119
3087 3082 3081 3080 3076 3075 3071 3065 3055 3050 3048 3042 3032 3032 3021 3015 3013 3007 3001 2993 2991 2988 2985 2984 2984 2991 2998 3005 3014 3020 3028 3036 3045 3051 3059 3068 3073 3079 3087 3093 3100 3105 3110 3114
3084 3082 3079 3076 3075 3073 3071 3064 3055 3048 3041 3028 3031 3029 3018 3014 3010 3003 2992 2986 2983 2978 2971 2969 2973 2981 2991 2999 3006 3012 3021 3029 3037 3046 3054 3062 3069 3075 3084 3091 3096 3101 3105 3111
3084 3081 3080 3077 3076 3072 3070 3067 3065 3059 3044 3032 3028 3024 3017 3012 3006 3000 2991 2984 2979 2972 2963 2961 2966 2976 2985 2993 3001 3008 3016 3024 3033 3041 3050 3057 3065 3072 3080 3087 3092 3096 3102 3106
3086 3081 3078 3076 3073 3072 3069 3067 3066 3058 3049 3040 3022 3020 3014 3011 3003 2994 2984 2976 2973 2970 2965 2963 2966 2974 2982 2991 2996 3004 3012 3019 3029 3039 3046 3053 3061 3069 3077 3082 3088 3092 3097 3101
3089 3081 3076 3075 3072 3069 3069 3068 3063 3058 3048 3033 3017 3015 3014 3004 2995 2987 2979 2974 2970 2965 2966 2963 2966 2971 2980 2990 2993 3002 3010 3017 3026 3033 3041 3051 3060 3067 3072 3077 3082 3087 3092 3096
3088 3084 3078 3073 3071 3069 3068 3066 3062 3058 3053 3044 3026 3016 3013 3006 2996 2988 2979 2973 2968 2968 2969 2967 2965 2971 2981 2987 2992 3000 3007 3013 3020 3029 3034 3048 3056 3060 3068 3073 3079 3084 3087 3092
3086 3081 3076 3070 3067 3065 3065 3062 3060 3056 3049 3045 3037 3022 3017 3005 2995 2988 2980 2972 2967 2968 2967 2967 2968 2975 2980 2983 2989 2997 3003 3010 3017 3026 3033 3042 3053 3060 3067 3072 3077 3080 3082 3086
3084 3079 3073 3067 3065 3064 3063 3060 3057 3052 3047 3041 3036 3020 3016 3002 2990 2983 2976 2972 2969 2965 2965 2966 2972 2977 2980 2983 2990 2995 3001 3009 3018 3024 3025 3041 3051 3059 3063 3068 3073 3074 3078 3081
3079 3078 3076 3074 3069 3064 3059 3056 3053 3049 3043 3037 3033 3022 3011 2998 2986 2980 2976 2972 2970 2968 2966 2968 2970 2974 2979 2981 2988 2994 2999 3007 3014 3021 3030 3041 3049 3054 3059 3063 3068 3071 3075 3067
3078 3076 3073 3069 3064 3060 3057 3053 3050 3045 3041 3037 3032 3025 3013 2998 2989 2983 2977 2974 2974 2973 2970 2968 2970 2974 2979 2984 2988 2992 2999 3006 3015 3022 3031 3038 3043 3051 3057 3061 3064 3067 3071 3070
3077 3072 3069 3063 3059 3056 3053 3051 3048 3044 3038 3035 3032 3025 3014 3003 2993 2985 2979 2975 2975 2972 2972 2971 2972 2977 2980 2983 2987 2991 2996 3002 3007 3018 3027 3035 3043 3048 3053 3056 3059 3063 3066 3065
3074 3071 3066 3059 3056 3051 3050 3049 3046 3042 3037 3035 3029 3024 3013 3003 2996 2989 2982 2977 2976 2975 2975 2975 2976 2984 2986 2985 2984 2982 2987 3005 3015 3023 3028 3034 3040 3046 3050 3052 3055 3059 3061 3062
3071 3070 3067 3060 3055 3046 3049 3047 3045 3041 3036 3032 3029 3023 3016 3007 2999 2993 2987 2980 2979 2978 2981 2982 2977 2979 2988 2992 2990 2990 3000 3010 3017 3021 3025 3031 3037 3041 3044 3048 3050 3055 3060 3063
3069 3069 3065 3061 3056 3050 3046 3046 3043 3038 3036 3031 3028 3021 3015 3008 3000 2995 2990 2985 2981 2981 2982 2984 2986 2985 2989 2992 2994 2999 3003 3009 3016 3022 3027 3031 3036 3038 3041 3043 3047 3052 3057 3061
3067 3066 3067 3062 3058 3050 3045 3043 3040 3037 3032 3031 3027 3020 3014 3008 3002 2999 2994 2990 2988 2984 2984 2984 2987 2989 2989 2993 2997 3001 3002 3010 3016 3022 3025 3028 3031 3034 3037 3040 3044 3048 3054 3058
3067 3064 3061 3058 3055 3049 3043 3041 3039 3038 3036 3029 3026 3020 3015 3010 3007 3001 2995 2992 2992 2991 2988 2987 2987 2989 2991 2994 2997 3000 3003 3007 3012 3018 3023 3024 3026 3028 3036 3040 3044 3047 3052 3060
3065 3063 3059 3055 3052 3049 3041 3041 3041 3038 3031 3029 3025 3020 3015 3011 3007 3003 3000 2995 2995 2994 2993 2992 2990 2989 2990 2993 2997 2999 3001 3006 3010 3014 3017 3019 3024 3030 3035 3040 3044 3048 3054 3062
3062 3061 3058 3056 3049 3044 3040 3036 3034 3031 3029 3027 3023 3019 3014 3011 3007 3003 3001 2998 2995 2995 2992 2990 2991 2990 2990 2992 2995 2998 3001 3004 3007 3010 3014 3020 3025 3030 3036 3041 3047 3053 3059 3064
3057 3055 3051 3049 3042 3039 3035 3031 3028 3026 3026 3025 3021 3017 3013 3010 3006 3004 3000 2998 2995 2993 2990 2990 2989 2988 2989 2992 2995 2996 2999 3002 3006 3010 3015 3021 3026 3032 3038 3044 3049 3054 3060 3064
3051 3049 3045 3041 3037 3033 3032 3029 3026 3025 3024 3022 3020 3016 3012 3010 3006 3003 3001 2998 2995 2992 2990 2988 2985 2983 2982 2986 2993 2997 3001 3003 3003 3004 3011 3018 3026 3035 3039 3044 3049 3055 3059 3064
3039 3037 3038 3035 3034 3030 3029 3026 3024 3022 3021 3020 3017 3015 3012 3009 3006 3003 3001 2998 2996 2993 2990 2986 2980 2976 2976 2982 2986 2994 2999 3004 3009 3010 3017 3019 3028 3037 3044 3049 3052 3056 3061 3065